Location: Gwatt
(46.7204°N, 7.6223°E)
Time: 05:25:18
(UTC+00:00)

S-56A Canister/Altair - Pass Details

Date: 22 January 2021
Orbit: 632 x 2501 km, 38.9° (Epoch: 08 March)

Event Time Altitude Azimuth Distance (km) Brightness Sun altitude
Exits shadow 04:15:08 33° 161° (SSE) 1,197 8.6 -28.8°
Drops below altitude 10° 04:19:41 10° 109° (ESE) 2,504 11.0 -28.0°
Sets 04:22:50 0° 101° (ESE) 3,697 12.2 -27.4°
